TGW484 WSSS-WMKI

Flight info

Callsign TGW484
Flight time N/A
Altitude 34000
Route AROSO5B AROSO Y513 KALIL Y504 BILIK A457 SUKAT W545 DUDAD DUDAD1E
Aircraft A320/M-SDE3FGHIRWY/LB1

Departure

Time 2026-05-08 05:20
Airport Singapore Changi Airport (WSSS)

Arrival

Time N/A
Airport Sultan Azlan Shah Airport (WMKI)
Time Latitude Longitude Altitude Speed Heading
2026-05-08 05:06 1.36662 103.99038 31 ft 0 kts 275°
2026-05-08 05:13 1.36661 103.99043 30 ft 4 kts 275°
2026-05-08 05:13 1.36658 103.99070 30 ft 4 kts 278°
2026-05-08 05:13 1.36655 103.99093 30 ft 2 kts 277°
2026-05-08 05:14 1.36648 103.99115 30 ft 4 kts 319°
2026-05-08 05:14 1.36626 103.99125 30 ft 2 kts 352°
2026-05-08 05:14 1.36605 103.99128 30 ft 0 kts 352°
2026-05-08 05:16 1.36614 103.99126 30 ft 3 kts 352°
2026-05-08 05:17 1.36641 103.99123 30 ft 5 kts 355°
2026-05-08 05:17 1.36674 103.99145 30 ft 7 kts 55°
2026-05-08 05:17 1.36669 103.99195 30 ft 9 kts 112°
2026-05-08 05:17 1.36641 103.99262 30 ft 12 kts 113°
2026-05-08 05:18 1.36606 103.99344 30 ft 14 kts 113°
2026-05-08 05:18 1.36563 103.99445 30 ft 17 kts 113°
2026-05-08 05:18 1.36512 103.99564 30 ft 20 kts 114°
2026-05-08 05:18 1.36453 103.99695 30 ft 22 kts 114°
2026-05-08 05:19 1.36391 103.99836 30 ft 20 kts 115°
2026-05-08 05:19 1.36267 103.99882 30 ft 21 kts 174°
2026-05-08 05:19 1.36114 103.99865 30 ft 27 kts 203°
2026-05-08 05:19 1.35723 103.99700 30 ft 95 kts 202°
2026-05-08 05:20 1.34936 103.99367 31 ft 147 kts 202°
2026-05-08 05:20 1.33869 103.98943 223 ft 175 kts 199°
2026-05-08 05:20 1.32700 103.98477 845 ft 180 kts 201°
2026-05-08 05:20 1.31561 103.97987 1674 ft 178 kts 201°
2026-05-08 05:21 1.30405 103.97485 2151 ft 189 kts 201°
2026-05-08 05:21 1.29113 103.96929 2408 ft 214 kts 202°
2026-05-08 05:21 1.27623 103.96539 2748 ft 236 kts 179°
2026-05-08 05:21 1.25970 103.96990 3161 ft 258 kts 148°
2026-05-08 05:22 1.24702 103.98281 3880 ft 268 kts 120°
2026-05-08 05:22 1.24106 104.00060 4736 ft 273 kts 95°
2026-05-08 05:22 1.24350 104.01941 5574 ft 278 kts 69°
2026-05-08 05:22 1.25416 104.03545 6377 ft 284 kts 43°
2026-05-08 05:23 1.27164 104.04554 6698 ft 307 kts 14°
2026-05-08 05:23 1.29378 104.04576 6948 ft 330 kts 348°
2026-05-08 05:23 1.31669 104.03981 7282 ft 346 kts 344°
2026-05-08 05:23 1.33969 104.03301 7887 ft 352 kts 343°
2026-05-08 05:24 1.36317 104.02581 8536 ft 356 kts 343°
2026-05-08 05:24 1.38733 104.01844 9186 ft 359 kts 343°